sat.trackr.live / text

‹ back to catalog

DOORY-SAT

NORAD 58500 · 2023-188A

PAYLOAD ACTIVE UNKNOWN

§ Identity

Operator
Country
SKOR
Launch date
2023-12-04
Launch site
JJSLA
Launch vehicle
Mass (kg)
RCS (m²)

External: N2YO · Heavens-Above · Gunter

§ Orbital elements

Epoch: 2026-05-25T04:03:31.715712Z

Period
97.26 min
Inclination
46.9822°
Eccentricity
0.0008960
Mean motion
14.80556506 rev/d
Perigee alt
621.3 km
Apogee alt
633.8 km
Semi-major
7,005.7 km
B*
1.4457e-4
RAAN
47.4991°
Arg perigee
287.4594°
Mean anomaly
72.5321°
Rev number
13,358

§ Raw data

DOORY-SAT1 58500U 23188A   26145.16911708  .00000915  00000+0  14457-3 0  99992 58500  46.9822  47.4991 0008960 287.4594  72.5321 14.80556506133587

JSON: /api/v1/satellites/58500 · /tle

For live sub-satellite position, see the globe view (requires WebGL).

§ Visibility from observer

Set your observer location to see the next 7 days of passes ≥ 10°. The values pass through the URL so the page stays shareable.

No JS? Fill the form by hand. The geolocation button needs JavaScript.